| time (UTC) | temp C | wind direction | speed KPH | gust KPH | rain 1hr cm | rain 24hr cm | rain mn cm | humidity % | barometer mb |
| 20260505023019 | 13 | 0.0 | 0.0 | 0.00 | 0.00 | 0.00 | 77 | 966.5 | |
| 20260505022515 | 13 | 178 | 0.0 | 0.0 | 0.00 | 0.00 | 0.00 | 76 | 966.1 |
| 20260505022033 | 13 | 0.0 | 0.0 | 0.00 | 0.00 | 0.00 | 76 | 966.4 | |
| 20260505021126 | 13 | 0.0 | 0.0 | 0.00 | 0.00 | 0.00 | 75 | 966.2 | |
| 20260505020517 | 14 | 0.0 | 0.0 | 0.00 | 0.00 | 0.00 | 75 | 966.3 | |
| 20260505015516 | 14 | 178 | 0.0 | 0.0 | 0.00 | 0.00 | 0.00 | 74 | 966.0 |
| 20260505014636 | 14 | 0.0 | 0.0 | 0.00 | 0.00 | 0.00 | 73 | 966.2 | |
| 20260505014015 | 15 | 178 | 0.0 | 0.0 | 0.00 | 0.00 | 0.00 | 72 | 965.9 |
| 20260505013027 | 15 | 0.0 | 0.0 | 0.00 | 0.00 | 0.00 | 71 | 965.9 | |
| 20260505012017 | 15 | 178 | 0.0 | 0.0 | 0.00 | 0.00 | 0.00 | 70 | 965.9 |
| 20260505011528 | 15 | 0.0 | 0.0 | 0.00 | 0.00 | 0.00 | 69 | 965.9 | |
| 20260505011015 | 16 | 178 | 0.0 | 0.0 | 0.00 | 0.00 | 0.00 | 69 | 965.8 |
| 20260505010618 | 16 | 0.0 | 0.0 | 0.00 | 0.00 | 0.00 | 68 | 966.0 | |
| 20260505010035 | 16 | 178 | 0.0 | 0.0 | 0.00 | 0.00 | 0.00 | 67 | 965.9 |
| 20260505005515 | 16 | 178 | 0.0 | 0.0 | 0.00 | 0.00 | 0.00 | 67 | 965.9 |
| 20260505005016 | 16 | 178 | 0.0 | 0.0 | 0.00 | 0.00 | 0.00 | 66 | 965.8 |
| 20260505004515 | 17 | 178 | 0.0 | 0.0 | 0.00 | 0.00 | 0.00 | 66 | 965.8 |
| 20260505004015 | 17 | 178 | 0.0 | 0.0 | 0.00 | 0.00 | 0.00 | 64 | 965.7 |
| 20260505003015 | 17 | 178 | 0.0 | 0.0 | 0.00 | 0.00 | 0.00 | 62 | 965.7 |
| 20260505002517 | 18 | 178 | 0.0 | 0.0 | 0.00 | 0.00 | 0.00 | 60 | 965.7 |
| 20260505002052 | 18 | 0.0 | 0.0 | 0.00 | 0.00 | 0.00 | 60 | 965.7 | |
| 20260505001515 | 19 | 178 | 0.0 | 0.0 | 0.00 | 0.00 | 0.00 | 58 | 965.6 |
| 20260505001036 | 19 | 178 | 0.0 | 0.0 | 0.00 | 0.00 | 0.00 | 58 | 965.6 |
| 20260505000520 | 20 | 178 | 0.0 | 0.0 | 0.00 | 0.00 | 0.00 | 57 | 965.8 |
| 20260505000035 | 20 | 178 | 0.0 | 0.0 | 0.00 | 0.00 | 0.00 | 54 | 965.6 |
| 20260504235502 | 20 | 0.0 | 0.0 | 0.00 | 0.00 | 0.00 | 52 | 965.6 | |
| 20260504235015 | 21 | 185 | 0.0 | 3.2 | 0.00 | 0.00 | 0.00 | 51 | 965.8 |
| 20260504234044 | 21 | 225 | 0.0 | 1.6 | 0.00 | 0.00 | 0.00 | 50 | 965.7 |
| 20260504233518 | 21 | 170 | 0.0 | 1.6 | 0.00 | 0.00 | 0.00 | 49 | 965.9 |
| 20260504232515 | 21 | 169 | 0.0 | 0.0 | 0.00 | 0.00 | 0.00 | 48 | 965.8 |
| 20260504232034 | 22 | 0.0 | 0.0 | 0.00 | 0.00 | 0.00 | 46 | 965.6 | |
| 20260504230515 | 22 | 170 | 0.0 | 0.0 | 0.00 | 0.00 | 0.00 | 44 | 965.8 |
| 20260504225515 | 22 | 137 | 0.0 | 3.2 | 0.00 | 0.00 | 0.00 | 42 | 965.9 |
| 20260504224515 | 23 | 224 | 0.0 | 3.2 | 0.00 | 0.00 | 0.00 | 39 | 966.0 |
| 20260504223610 | 23 | 225 | 0.0 | 1.6 | 0.00 | 0.00 | 0.00 | 37 | 965.8 |
| 20260504223015 | 23 | 222 | 0.0 | 1.6 | 0.00 | 0.00 | 0.00 | 35 | 966.0 |
| 20260504222016 | 24 | 223 | 0.0 | 0.0 | 0.00 | 0.00 | 0.00 | 34 | 966.0 |
| 20260504221348 | 24 | 225 | 0.0 | 3.2 | 0.00 | 0.00 | 0.00 | 36 | 965.9 |
| 20260504220015 | 24 | 221 | 0.0 | 3.2 | 0.00 | 0.00 | 0.00 | 39 | 966.0 |
| 20260504215124 | 24 | 225 | 0.0 | 1.6 | 0.00 | 0.00 | 0.00 | 40 | 965.9 |
| 20260504214515 | 25 | 226 | 0.0 | 0.0 | 0.00 | 0.00 | 0.00 | 39 | 965.9 |
| 20260504214015 | 25 | 217 | 0.0 | 3.2 | 0.00 | 0.00 | 0.00 | 38 | 966.0 |
| 20260504213112 | 25 | 338 | 0.0 | 4.8 | 0.00 | 0.00 | 0.00 | 39 | 965.9 |
| 20260504212555 | 25 | 254 | 0.0 | 1.6 | 0.00 | 0.00 | 0.00 | 40 | 966.1 |
| 20260504212048 | 25 | 225 | 1.6 | 1.6 | 0.00 | 0.00 | 0.00 | 38 | 965.8 |
| 20260504211015 | 25 | 97 | 0.0 | 8.0 | 0.00 | 0.00 | 0.00 | 38 | 965.8 |
| 20260504210015 | 25 | 215 | 1.6 | 1.6 | 0.00 | 0.00 | 0.00 | 41 | 965.9 |
| 20260504205137 | 25 | 225 | 1.6 | 4.8 | 0.00 | 0.00 | 0.00 | 42 | 966.1 |
| 20260504204555 | 25 | 249 | 0.0 | 3.2 | 0.00 | 0.00 | 0.00 | 44 | 966.0 |
| 20260504203515 | 25 | 230 | 0.0 | 3.2 | 0.00 | 0.00 | 0.00 | 42 | 966.1 |
| 20260504202515 | 25 | 223 | 1.6 | 3.2 | 0.00 | 0.00 | 0.00 | 44 | 966.2 |
| 20260504201528 | 25 | 225 | 0.0 | 1.6 | 0.00 | 0.00 | 0.00 | 45 | 966.2 |
| 20260504201015 | 25 | 215 | 0.0 | 1.6 | 0.00 | 0.00 | 0.00 | 44 | 966.2 |
| 20260504200029 | 25 | 225 | 0.0 | 3.2 | 0.00 | 0.00 | 0.00 | 42 | 966.4 |
| 20260504195515 | 25 | 210 | 1.6 | 3.2 | 0.00 | 0.00 | 0.00 | 42 | 966.5 |
| 20260504195023 | 25 | 45 | 1.6 | 3.2 | 0.00 | 0.00 | 0.00 | 45 | 966.7 |
| 20260504194514 | 25 | 84 | 0.0 | 1.6 | 0.00 | 0.00 | 0.00 | 43 | 966.7 |
| 20260504194015 | 25 | 281 | 0.0 | 1.6 | 0.00 | 0.00 | 0.00 | 42 | 966.7 |
| 20260504193013 | 25 | 45 | 1.6 | 6.4 | 0.00 | 0.00 | 0.00 | 45 | 967.0 |
| 20260504192345 | 25 | 225 | 0.0 | 3.2 | 0.00 | 0.00 | 0.00 | 38 | 967.0 |
| 20260504191521 | 25 | 225 | 0.0 | 1.6 | 0.00 | 0.00 | 0.00 | 38 | 967.2 |
| 20260504190514 | 25 | 230 | 0.0 | 1.6 | 0.00 | 0.00 | 0.00 | 38 | 967.3 |
| 20260504190015 | 25 | 67 | 1.6 | 1.6 | 0.00 | 0.00 | 0.00 | 38 | 967.3 |
| 20260504185514 | 25 | 45 | 1.6 | 4.8 | 0.00 | 0.00 | 0.00 | 40 | 967.5 |
| 20260504184514 | 25 | 236 | 0.0 | 0.0 | 0.00 | 0.00 | 0.00 | 42 | 967.5 |
| 20260504184121 | 25 | 68 | 3.2 | 9.7 | 0.00 | 0.00 | 0.00 | 40 | 967.5 |
| 20260504183003 | 25 | 225 | 1.6 | 6.4 | 0.00 | 0.00 | 0.00 | 39 | 967.8 |
| 20260504182514 | 25 | 284 | 0.0 | 6.4 | 0.00 | 0.00 | 0.00 | 42 | 967.7 |
| 20260504181549 | 25 | 68 | 1.6 | 6.4 | 0.00 | 0.00 | 0.00 | 47 | 968.0 |
| 20260504181015 | 25 | 308 | 1.6 | 4.8 | 0.00 | 0.00 | 0.00 | 42 | 968.0 |
| 20260504180003 | 25 | 68 | 1.6 | 4.8 | 0.00 | 0.00 | 0.00 | 42 | 968.3 |
| 20260504175016 | 25 | 297 | 0.0 | 1.6 | 0.00 | 0.00 | 0.00 | 43 | 968.3 |
| 20260504174515 | 25 | 212 | 0.0 | 0.0 | 0.00 | 0.00 | 0.00 | 43 | 968.1 |
| 20260504174021 | 25 | 225 | 0.0 | 1.6 | 0.00 | 0.00 | 0.00 | 44 | 968.5 |
| 20260504173514 | 25 | 68 | 1.6 | 3.2 | 0.00 | 0.00 | 0.00 | 46 | 968.3 |
| 20260504173011 | 25 | 45 | 1.6 | 4.8 | 0.00 | 0.00 | 0.00 | 45 | 968.6 |
| 20260504172514 | 26 | 316 | 1.6 | 4.8 | 0.00 | 0.00 | 0.00 | 41 | 968.5 |
| 20260504172003 | 25 | 225 | 0.0 | 4.8 | 0.00 | 0.00 | 0.00 | 45 | 968.7 |
| 20260504171516 | 25 | 224 | 0.0 | 1.6 | 0.00 | 0.00 | 0.00 | 43 | 968.6 |
| 20260504171015 | 26 | 226 | 0.0 | 1.6 | 0.00 | 0.00 | 0.00 | 42 | 968.9 |
| 20260504170525 | 26 | 23 | 0.0 | 1.6 | 0.00 | 0.00 | 0.00 | 43 | 969.0 |
| 20260504151018 | 23 | 223 | 0.0 | 1.6 | 0.00 | 0.00 | 0.00 | 50 | 969.4 |
| 20260504141016 | 20 | 222 | 0.0 | 3.2 | 0.00 | 0.00 | 0.00 | 61 | 969.9 |
| 20260504130516 | 16 | 238 | 0.0 | 0.0 | 0.00 | 0.00 | 0.00 | 65 | 969.9 |
| 20260504110525 | 5 | 0.0 | 0.0 | 0.00 | 0.00 | 0.00 | 95 | 969.0 | |
| 20260504100535 | 5 | 238 | 0.0 | 0.0 | 0.00 | 0.00 | 0.00 | 94 | 968.9 |
| 20260504081611 | 5 | 0.0 | 0.0 | 0.00 | 0.00 | 0.00 | 94 | 969.3 | |
| 20260504080516 | 5 | 238 | 0.0 | 0.0 | 0.00 | 0.00 | 0.00 | 94 | 969.1 |
| 20260504070128 | 6 | 0.0 | 0.0 | 0.00 | 0.00 | 0.00 | 93 | 969.6 | |
| 20260504050632 | 7 | 0.0 | 0.0 | 0.00 | 0.00 | 0.00 | 90 | 970.3 | |
| 20260504050116 | 7 | 0.0 | 0.0 | 0.00 | 0.00 | 0.00 | 90 | 970.3 | |
| 20260504045515 | 7 | 238 | 0.0 | 0.0 | 0.00 | 0.00 | 0.00 | 90 | 970.0 |
| 20260504045023 | 7 | 0.0 | 0.0 | 0.00 | 0.00 | 0.00 | 90 | 970.3 | |
| 20260504044024 | 7 | 0.0 | 0.0 | 0.00 | 0.00 | 0.00 | 90 | 970.3 | |
| 20260504043629 | 7 | 0.0 | 0.0 | 0.00 | 0.00 | 0.00 | 89 | 970.5 | |
| 20260504043016 | 7 | 238 | 0.0 | 0.0 | 0.00 | 0.00 | 0.00 | 88 | 970.2 |
| 20260504042116 | 7 | 0.0 | 0.0 | 0.00 | 0.00 | 0.00 | 88 | 970.5 | |
| 20260504041507 | 8 | 0.0 | 0.0 | 0.00 | 0.00 | 0.00 | 88 | 970.6 | |
| 20260504041050 | 8 | 0.0 | 0.0 | 0.00 | 0.00 | 0.00 | 88 | 970.5 | |
| 20260504040515 | 8 | 238 | 0.0 | 0.0 | 0.00 | 0.00 | 0.00 | 87 | 970.4 |
| 20260504040014 | 8 | 0.0 | 0.0 | 0.00 | 0.00 | 0.00 | 87 | 970.7 | |
| 20260504035515 | 8 | 238 | 0.0 | 0.0 | 0.00 | 0.00 | 0.00 | 88 | 970.4 |
| 20260504035015 | 8 | 238 | 0.0 | 0.0 | 0.00 | 0.00 | 0.00 | 87 | 970.5 |
| 20260504034548 | 8 | 0.0 | 0.0 | 0.00 | 0.00 | 0.00 | 87 | 970.6 | |
| 20260504033515 | 8 | 238 | 0.0 | 0.0 | 0.00 | 0.00 | 0.00 | 86 | 970.4 |
| 20260504033007 | 8 | 0.0 | 0.0 | 0.00 | 0.00 | 0.00 | 86 | 970.4 | |
| 20260504032515 | 8 | 238 | 0.0 | 0.0 | 0.00 | 0.00 | 0.00 | 84 | 970.3 |
| 20260504032015 | 8 | 238 | 0.0 | 0.0 | 0.00 | 0.00 | 0.00 | 84 | 970.2 |
| 20260504031513 | 9 | 0.0 | 0.0 | 0.00 | 0.00 | 0.00 | 84 | 970.4 | |
| 20260504031015 | 9 | 238 | 0.0 | 0.0 | 0.00 | 0.00 | 0.00 | 83 | 970.2 |
| 20260504030532 | 9 | 0.0 | 0.0 | 0.00 | 0.00 | 0.00 | 84 | 970.4 | |
| 20260504030016 | 9 | 238 | 0.0 | 0.0 | 0.00 | 0.00 | 0.00 | 83 | 970.3 |
| 20260504025515 | 9 | 238 | 0.0 | 0.0 | 0.00 | 0.00 | 0.00 | 82 | 970.3 |
| 20260504024538 | 10 | 0.0 | 0.0 | 0.00 | 0.00 | 0.00 | 81 | 970.4 | |
| 20260504024016 | 10 | 238 | 0.0 | 0.0 | 0.00 | 0.00 | 0.00 | 80 | 970.2 |
| 20260504023550 | 10 | 0.0 | 0.0 | 0.00 | 0.00 | 0.00 | 80 | 970.4 |